Location: Hamburg
(53.5500°N, 10.0000°E)
Time: 12:33:31
(UTC+01:00)

A-11 Canister half - All Passes

Search period start: 06 February 2016 00:00
Search period end: 16 February 2016 00:00
Orbit: 1527 x 1682 km, 47.3° (Epoch: 06 February)

Date Brightness Start Highest point End Pass type
(mag) Time Alt. Az. Time Alt. Az. Time Alt. Az.
06 Feb - 02:01:24 10° S 02:08:11 23° SE 02:14:58 10° E visible
06 Feb - 04:02:41 10° SW 04:11:27 48° SSE 04:20:19 10° E visible
06 Feb - 06:06:28 10° WSW 06:15:34 60° S 06:24:51 10° ESE visible
06 Feb - 08:10:57 10° W 08:19:39 45° SSW 08:28:32 10° SE daylight
06 Feb - 10:16:34 10° W 10:22:48 20° SW 10:29:10 10° S daylight
07 Feb - 01:40:07 10° S 01:46:43 22° SE 01:53:19 10° E visible
07 Feb - 03:41:13 10° SW 03:49:56 47° SSE 03:58:45 10° E visible
07 Feb - 05:44:57 10° WSW 05:54:02 61° S 06:03:18 10° ESE visible
07 Feb - 07:49:24 10° W 07:58:08 46° SSW 08:07:03 10° SE daylight
07 Feb - 09:54:54 10° W 10:01:20 21° SW 10:07:53 10° S daylight
08 Feb - 01:18:51 10° S 01:25:16 21° SE 01:31:40 10° E visible
08 Feb - 03:19:44 10° SW 03:28:26 46° SSE 03:37:11 10° E visible
08 Feb - 05:23:25 10° WSW 05:32:30 61° S 05:41:45 10° ESE visible
08 Feb - 07:27:52 10° W 07:36:37 47° SSW 07:45:33 10° SE daylight
08 Feb - 09:33:16 10° W 09:39:52 22° SW 09:46:36 10° S daylight
09 Feb - 00:57:35 10° S 01:03:48 20° SE 01:10:00 10° E visible
09 Feb - 02:58:17 10° SW 03:06:55 45° SSE 03:15:37 10° E visible
09 Feb - 05:01:53 10° WSW 05:10:58 60° S 05:20:11 10° ESE visible
09 Feb - 07:06:19 10° W 07:15:06 48° SSW 07:24:03 10° SE visible
09 Feb - 09:11:37 10° W 09:18:24 23° SW 09:25:18 10° S daylight
10 Feb - 00:36:22 10° S 00:42:20 19° SE 00:48:19 10° E visible
10 Feb - 02:36:49 10° SW 02:45:25 44° SSE 02:54:03 10° E visible
10 Feb - 04:40:22 10° WSW 04:49:26 60° S 04:58:38 10° ESE visible
10 Feb - 06:44:46 10° W 06:53:35 49° SSW 07:02:33 10° SE visible
10 Feb - 08:50:00 10° W 08:56:55 24° SW 09:03:58 10° S daylight
11 Feb - 00:15:08 10° S 00:20:53 18° SE 00:26:37 10° E visible
11 Feb - 02:15:21 10° SW 02:23:55 43° SSE 02:32:30 10° E visible
11 Feb - 04:18:50 10° WSW 04:27:55 60° S 04:37:05 10° E visible
11 Feb - 06:23:14 10° W 06:32:03 50° SSW 06:41:03 10° SE visible
11 Feb - 08:28:23 10° W 08:35:26 25° SW 08:42:39 10° S daylight
11 Feb - 23:53:57 10° SSE 23:59:26 17° SE 00:04:54 10° E night (unlit)
12 Feb - 01:53:53 10° SW 02:02:25 42° SSE 02:10:56 10° E visible
12 Feb - 03:57:18 10° WSW 04:06:23 60° S 04:15:32 10° E visible
12 Feb - 06:01:41 10° W 06:10:32 51° SSW 06:19:32 10° SE visible
12 Feb - 08:06:46 10° W 08:13:58 26° SW 08:21:17 10° S daylight
12 Feb - 23:32:47 10° SSE 23:37:59 16° SE 23:43:10 10° E night (unlit)
13 Feb - 01:32:26 10° SW 01:40:55 41° SSE 01:49:22 10° E visible
13 Feb - 03:35:47 10° WSW 03:44:51 60° S 03:53:58 10° E visible
13 Feb - 05:40:09 10° W 05:49:01 52° SSW 05:58:02 10° SE visible
13 Feb - 07:45:10 10° W 07:52:30 27° SW 07:59:56 10° S daylight
13 Feb - 23:11:39 10° SSE 23:16:32 15° SE 23:21:24 10° E night (unlit)
14 Feb - 01:10:59 10° SW 01:19:25 40° SSE 01:27:48 10° E visible
14 Feb - 03:14:15 10° WSW 03:23:19 59° S 03:32:26 10° E visible
14 Feb - 05:18:37 10° W 05:27:30 52° SSW 05:36:31 10° SE visible
14 Feb - 07:23:34 10° W 07:31:01 28° SW 07:38:35 10° SSE daylight
14 Feb - 22:50:33 10° SSE 22:55:06 15° SE 22:59:36 10° E night (unlit)
15 Feb - 00:49:33 10° SSW 00:57:55 39° SSE 01:06:14 10° E visible
15 Feb - 02:52:44 10° WSW 03:01:47 59° S 03:10:53 10° E visible
15 Feb - 04:57:04 10° W 05:05:59 53° SSW 05:15:00 10° SE visible
15 Feb - 07:01:59 10° W 07:09:32 29° SW 07:17:12 10° SSE visible
15 Feb - 22:29:31 10° SSE 22:33:39 14° SE 22:37:46 10° E night (unlit)
